Wind_Speed
12 13 14 14 16 18 19 21 24 25 25 26 25 22 20 19 18 17 19 18 15 15 16 16 17 18 18 18 19 21 19 17 19 18 18 19 19 18 18 17 16 15
12 12 14 14 16 18 20 22 23 24 24 25 24 22 20 18 16 15 17 17 16 17 17 17 18 20 19 18 19 20 20 19 20 17 15 17 18 18 17 15 16 17
11 11 12 12 14 18 20 22 24 25 25 26 26 24 22 20 17 16 16 17 16 17 17 17 19 20 19 18 19 20 21 19 19 17 16 15 16 16 15 14 16 17
10 11 11 12 15 19 21 22 23 23 25 28 27 24 22 21 18 16 16 16 16 17 17 18 19 20 19 19 19 20 20 19 18 18 16 16 16 17 15 15 17 18
9 10 11 13 16 20 22 24 24 22 24 27 26 22 21 20 19 18 17 16 17 17 17 18 19 19 18 18 19 20 20 20 20 19 18 18 17 17 17 17 19 20
9 10 12 15 16 19 21 24 25 24 25 27 25 22 21 19 19 19 17 17 17 18 19 20 20 20 19 18 19 20 20 21 21 20 19 19 19 19 19 19 20 21
9 9 13 15 15 17 19 20 22 23 23 25 24 21 21 20 20 19 18 17 18 18 20 21 21 20 20 19 20 20 20 20 20 20 19 19 19 19 19 20 20 19
10 10 13 15 15 16 17 17 18 18 20 23 22 21 21 21 19 18 19 19 19 20 21 21 21 20 20 20 21 21 21 20 20 19 19 18 18 18 18 19 19 17
11 12 14 16 16 16 16 17 17 18 20 22 22 22 21 19 18 18 19 20 20 20 20 19 19 19 19 19 20 22 21 21 21 21 19 19 17 16 17 18 18 18
11 13 14 15 15 15 16 17 17 18 18 18 19 20 19 17 17 16 17 19 20 20 19 18 18 18 19 19 20 20 20 21 21 19 18 19 18 17 17 17 17 18
12 13 13 14 14 13 15 16 17 17 16 16 17 17 18 17 16 16 16 17 18 19 19 18 17 17 18 20 20 20 21 21 19 17 17 19 20 19 19 18 17 18
12 13 13 14 13 13 13 15 16 17 16 15 16 16 18 18 16 15 14 13 14 17 19 17 14 15 16 18 17 17 18 18 17 17 17 18 20 19 18 19 18 18
12 13 13 13 13 12 12 14 15 15 15 15 15 15 16 16 14 13 13 12 13 13 15 15 14 16 16 15 13 14 14 14 15 15 15 17 18 17 19 20 18 17
12 12 12 12 13 12 12 12 13 14 15 15 15 14 14 13 11 13 13 13 13 12 13 14 14 16 16 14 14 15 14 14 14 13 14 16 17 18 20 19 16 17
12 12 11 11 12 12 13 13 12 13 15 15 14 14 14 13 11 13 13 12 12 12 13 14 14 15 16 15 15 15 14 15 14 13 13 15 15 17 19 17 15 16
13 13 12 11 11 12 13 13 12 12 13 13 13 13 13 13 12 12 13 12 9 9 10 12 13 15 15 14 14 14 15 15 15 14 15 16 16 16 17 16 15 14
13 14 13 11 10 11 12 12 11 10 9 9 10 11 12 13 12 12 11 11 10 10 10 11 12 14 15 14 13 13 15 15 15 16 16 17 17 17 17 16 15 13
13 14 14 12 11 11 11 11 10 8 7 8 8 7 8 9 10 11 10 10 11 10 11 12 12 13 16 15 13 12 13 13 14 15 16 17 17 17 16 15 14 13
14 14 14 13 11 10 11 11 10 9 8 7 7 6 5 4 5 7 8 10 11 10 11 12 13 16 18 16 13 10 9 10 12 13 14 15 14 14 14 14 14 14
13 13 13 13 11 9 9 9 10 12 13 12 9 7 5 3 4 7 7 10 13 12 12 13 15 18 19 16 13 10 8 8 9 10 11 11 11 12 13 13 13 14
12 13 13 13 11 9 8 9 11 12 14 15 14 10 5 4 5 7 8 9 12 13 13 12 14 18 18 16 13 12 11 9 7 7 9 10 10 11 12 12 12 13
11 12 13 13 11 9 8 10 11 12 14 14 14 12 7 4 4 6 8 9 11 12 12 13 15 17 18 16 14 12 12 9 7 6 7 7 9 10 10 11 10 10
12 11 12 12 11 9 8 9 10 12 14 13 13 13 10 6 4 3 2 2 5 6 9 12 14 17 18 16 13 12 11 9 9 9 8 8 8 8 8 11 11 11
14 10 10 11 11 11 10 9 11 13 13 13 13 14 13 11 10 10 10 9 7 6 5 3 8 15 17 14 12 11 10 9 9 9 9 7 7 8 9 12 14 15
15 12 10 10 10 10 10 10 11 13 14 14 15 16 15 13 12 12 11 11 10 9 8 5 6 12 12 11 10 8 9 8 6 7 8 4 4 7 10 12 16 18
14 13 12 11 10 10 10 9 10 12 14 15 16 16 16 14 12 10 8 8 10 10 9 8 10 9 7 7 8 6 6 6 5 9 13 9 6 8 11 14 16 16
Wind_Direction
265 267 268 270 271 267 259 255 254 252 252 252 251 252 254 256 260 257 250 245 240 237 242 244 237 232 232 233 233 230 226 224 224 218 214 214 212 216 218 215 211 210
262 264 264 268 273 274 270 264 259 255 252 249 247 247 252 255 255 253 247 240 236 235 234 237 235 227 227 231 230 228 228 229 230 230 229 226 223 226 225 216 207 209
274 274 273 276 278 277 276 270 263 258 254 248 246 246 249 253 252 251 247 239 234 232 230 232 230 221 222 229 229 230 231 231 233 235 237 236 233 232 227 215 211 212
285 289 289 288 283 279 278 274 266 263 259 252 247 247 249 251 251 249 245 238 231 227 225 226 223 218 221 225 225 228 230 230 232 233 233 235 233 230 222 212 209 209
290 295 293 289 286 283 282 279 272 266 262 257 250 248 250 251 250 248 242 235 226 219 219 219 215 213 215 215 215 221 227 227 230 232 233 233 232 226 218 214 211 207
294 297 293 291 290 288 285 283 277 268 263 259 251 247 249 249 248 244 238 233 224 215 214 213 210 207 204 204 207 214 221 224 226 229 232 231 228 222 215 217 217 207
293 292 295 294 293 293 292 289 282 272 264 260 253 247 247 245 244 242 236 232 222 213 211 209 207 206 202 204 208 210 214 219 220 224 228 225 220 217 215 219 219 207
296 286 284 285 286 293 297 296 291 278 267 261 256 252 249 245 243 240 236 233 223 214 212 209 206 204 203 208 212 213 215 216 214 216 220 220 215 212 214 216 212 203
306 295 286 282 284 291 295 296 295 288 278 266 257 254 252 248 246 242 238 234 224 215 214 209 202 200 202 208 213 216 217 213 210 214 217 216 212 208 211 212 205 199
309 301 298 296 293 294 296 297 297 295 288 273 261 260 261 257 252 249 244 236 224 216 211 205 200 200 203 209 214 214 211 208 209 213 215 212 206 201 204 207 202 200
313 310 309 305 300 296 297 299 298 297 292 280 272 273 274 269 261 257 253 244 232 220 212 206 201 202 207 211 214 211 210 212 209 203 204 205 203 200 200 199 200 203
324 323 319 312 307 301 297 297 299 299 296 288 281 280 282 280 274 269 262 255 246 230 218 211 199 196 208 214 211 208 210 210 202 198 201 201 200 203 202 198 200 205
334 330 326 322 317 310 302 297 298 302 301 295 291 290 290 285 275 271 263 254 256 242 221 216 206 202 215 223 217 213 210 201 194 197 201 201 202 206 205 202 201 204
343 337 334 330 324 320 313 303 299 301 300 298 297 293 293 289 270 262 259 252 255 249 226 220 218 219 225 227 224 224 218 205 201 199 195 198 203 204 203 203 200 201
354 346 340 340 335 330 326 318 309 304 302 302 301 293 292 296 281 263 261 257 252 247 237 231 227 225 228 226 225 226 219 211 208 200 190 195 204 202 199 201 200 200
3 355 348 351 347 335 329 326 321 313 311 311 305 295 292 295 289 276 269 260 240 220 223 231 226 220 222 222 221 221 218 214 210 202 195 196 199 199 196 197 197 195
6 360 355 356 352 343 335 330 324 318 321 324 314 303 295 290 285 279 271 253 228 203 197 204 209 214 218 213 212 216 217 218 213 204 202 200 196 192 190 191 193 194
14 5 0 359 357 355 350 343 338 332 327 325 321 317 311 297 280 273 264 244 230 216 205 198 194 204 207 197 196 207 213 218 218 209 205 204 199 189 182 185 192 198
20 12 6 3 2 2 360 360 5 8 4 351 331 316 311 301 274 269 261 242 231 216 202 200 192 189 190 185 184 193 199 204 209 209 206 201 192 180 179 187 189 186
21 18 13 9 10 13 12 18 30 31 32 31 16 345 307 263 248 260 255 239 229 213 197 196 189 180 179 178 178 184 190 192 193 203 209 200 185 179 182 187 183 176
23 23 18 17 21 27 32 41 41 33 34 37 31 17 341 275 253 259 256 235 221 213 202 193 179 170 171 173 172 176 187 191 186 199 211 197 185 190 187 180 181 183
29 30 25 23 27 34 41 46 42 34 36 38 33 25 4 312 279 273 264 239 221 213 195 176 164 161 166 169 168 174 184 191 192 197 198 181 181 193 181 165 170 177
34 35 33 30 32 40 41 43 46 45 47 48 44 40 35 21 17 11 349 196 191 182 168 165 166 163 161 163 170 180 187 198 200 181 156 154 178 194 179 165 167 165
39 38 40 38 37 41 42 47 57 58 57 57 56 55 53 54 63 66 65 72 85 101 108 148 175 163 157 162 175 184 190 205 210 180 154 154 179 190 187 177 170 167
44 42 43 41 37 39 44 57 71 74 70 66 66 66 63 62 70 72 63 59 63 71 69 68 125 140 146 158 167 175 184 197 197 163 148 144 172 187 196 189 177 175
46 45 47 46 42 38 43 62 82 89 83 74 69 70 66 62 68 76 75 65 59 61 65 78 107 126 145 157 154 145 148 164 176 158 152 156 178 190 192 189 184 179
Height
1509 1509 1508 1508 1507 1506 1506 1506 1505 1503 1502 1501 1501 1500 1500 1500 1501 1501 1502 1503 1504 1505 1506 1506 1506 1506 1506 1508 1512 1516 1517 1518 1519 1521 1523 1525 1526 1527 1528 1529 1529 1529
1507 1507 1507 1506 1506 1505 1504 1503 1502 1501 1500 1499 1499 1499 1499 1499 1500 1500 1500 1501 1502 1503 1504 1504 1504 1504 1505 1506 1510 1513 1515 1515 1516 1518 1520 1522 1524 1525 1526 1528 1528 1529
1506 1505 1505 1505 1504 1503 1501 1501 1500 1498 1498 1497 1496 1496 1497 1498 1498 1498 1499 1499 1500 1500 1501 1502 1502 1502 1503 1504 1507 1510 1512 1513 1514 1516 1518 1520 1522 1523 1525 1527 1527 1528
1505 1505 1504 1503 1502 1501 1499 1498 1497 1496 1496 1495 1494 1494 1495 1495 1496 1497 1497 1498 1498 1498 1499 1500 1500 1500 1501 1502 1504 1507 1509 1511 1513 1515 1516 1518 1520 1522 1523 1524 1525 1526
1504 1504 1503 1502 1501 1499 1498 1496 1495 1494 1494 1493 1493 1493 1493 1493 1493 1494 1495 1495 1495 1496 1497 1498 1498 1499 1499 1500 1502 1504 1506 1509 1511 1513 1515 1517 1519 1520 1522 1522 1523 1526
1503 1503 1502 1500 1499 1498 1496 1494 1493 1493 1492 1492 1492 1492 1491 1491 1491 1492 1493 1493 1493 1495 1496 1496 1496 1496 1497 1498 1499 1501 1504 1507 1509 1512 1514 1516 1518 1519 1520 1520 1521 1524
1502 1501 1500 1499 1497 1496 1494 1493 1492 1491 1490 1490 1490 1490 1490 1490 1489 1490 1490 1491 1491 1492 1493 1494 1494 1494 1495 1497 1498 1499 1502 1505 1508 1510 1512 1514 1516 1518 1519 1520 1521 1522
1500 1499 1498 1496 1495 1494 1493 1491 1490 1489 1489 1488 1489 1489 1488 1488 1488 1488 1488 1488 1488 1489 1490 1491 1492 1493 1494 1496 1497 1498 1500 1504 1507 1509 1511 1513 1515 1516 1518 1520 1521 1522
1499 1497 1496 1494 1493 1493 1492 1490 1489 1488 1488 1488 1488 1489 1487 1487 1486 1486 1486 1486 1486 1487 1488 1489 1490 1492 1493 1495 1497 1498 1500 1502 1505 1507 1509 1510 1513 1515 1517 1519 1520 1521
1498 1496 1494 1493 1491 1491 1490 1489 1487 1486 1486 1487 1488 1488 1487 1485 1485 1485 1485 1485 1485 1486 1488 1489 1490 1491 1492 1495 1497 1498 1500 1502 1504 1507 1509 1509 1511 1513 1515 1517 1519 1520
1496 1495 1494 1492 1490 1489 1488 1487 1486 1485 1485 1486 1487 1487 1486 1485 1484 1485 1485 1486 1487 1487 1488 1488 1489 1490 1492 1494 1496 1498 1500 1502 1504 1507 1509 1510 1511 1513 1514 1515 1517 1519
1495 1494 1493 1491 1489 1488 1487 1486 1485 1485 1485 1485 1485 1485 1485 1485 1485 1485 1487 1488 1489 1489 1489 1489 1490 1491 1492 1493 1495 1498 1499 1501 1503 1505 1507 1509 1510 1512 1513 1514 1515 1516
1494 1493 1492 1491 1489 1488 1487 1486 1485 1485 1485 1484 1484 1484 1485 1485 1485 1486 1487 1489 1489 1489 1490 1490 1490 1491 1493 1493 1495 1496 1497 1500 1502 1504 1506 1508 1509 1511 1512 1512 1513 1514
1495 1494 1492 1491 1489 1488 1487 1486 1485 1485 1484 1484 1484 1485 1486 1486 1485 1486 1487 1487 1487 1488 1489 1491 1492 1492 1493 1494 1494 1495 1496 1498 1500 1502 1504 1506 1508 1509 1511 1512 1513 1514
1495 1494 1493 1491 1490 1488 1487 1486 1485 1484 1484 1484 1483 1484 1484 1484 1484 1484 1485 1486 1487 1488 1489 1490 1492 1493 1493 1494 1494 1495 1496 1497 1499 1501 1502 1504 1506 1508 1510 1512 1513 1513
1496 1495 1494 1492 1491 1489 1487 1486 1485 1484 1483 1483 1482 1482 1482 1482 1482 1482 1483 1484 1486 1487 1488 1489 1491 1492 1493 1494 1495 1495 1496 1497 1498 1500 1502 1503 1505 1507 1509 1510 1512 1512
1497 1496 1494 1492 1491 1489 1488 1486 1485 1484 1483 1483 1482 1481 1481 1481 1480 1481 1482 1483 1484 1486 1487 1489 1491 1492 1492 1494 1495 1496 1496 1497 1499 1501 1502 1503 1505 1506 1507 1508 1509 1511
1497 1496 1495 1493 1491 1490 1488 1487 1485 1484 1483 1483 1482 1481 1481 1480 1480 1480 1482 1483 1484 1485 1487 1489 1491 1492 1493 1494 1495 1497 1497 1498 1499 1501 1502 1504 1505 1505 1506 1507 1508 1510
1498 1497 1496 1494 1492 1490 1489 1487 1486 1485 1484 1483 1482 1482 1481 1481 1481 1481 1482 1483 1483 1484 1486 1488 1490 1492 1493 1494 1496 1497 1498 1498 1499 1501 1503 1504 1504 1504 1505 1506 1507 1509
1499 1498 1497 1495 1493 1492 1490 1489 1487 1486 1485 1483 1483 1482 1482 1482 1482 1482 1482 1483 1483 1484 1486 1487 1488 1490 1492 1494 1496 1497 1498 1499 1500 1501 1502 1503 1503 1504 1504 1505 1507 1509
1499 1498 1498 1496 1495 1493 1492 1490 1489 1488 1486 1484 1483 1483 1483 1483 1483 1483 1483 1483 1484 1484 1486 1487 1488 1490 1492 1494 1496 1498 1499 1500 1501 1501 1502 1502 1503 1504 1504 1505 1507 1509
1500 1499 1498 1497 1496 1495 1493 1492 1491 1489 1488 1486 1485 1484 1484 1484 1484 1484 1484 1484 1485 1485 1486 1487 1488 1491 1493 1495 1497 1498 1500 1501 1501 1501 1502 1502 1503 1503 1504 1505 1507 1509
1501 1500 1499 1499 1497 1496 1495 1494 1493 1491 1490 1488 1487 1486 1486 1486 1486 1486 1486 1486 1486 1487 1488 1489 1490 1492 1494 1496 1498 1500 1501 1501 1501 1501 1502 1502 1503 1504 1505 1507 1508 1509
1503 1502 1501 1500 1499 1498 1497 1496 1494 1493 1492 1491 1490 1489 1489 1488 1489 1489 1489 1488 1489 1490 1491 1492 1493 1494 1496 1498 1500 1501 1501 1501 1501 1502 1502 1503 1504 1505 1507 1508 1509 1510
1504 1503 1502 1501 1500 1499 1498 1497 1496 1495 1495 1494 1493 1492 1492 1492 1492 1492 1492 1492 1493 1493 1494 1495 1496 1497 1499 1501 1501 1502 1502 1502 1503 1504 1505 1506 1507 1507 1508 1509 1510 1510
1506 1505 1504 1503 1502 1501 1500 1499 1498 1498 1497 1497 1496 1495 1495 1495 1495 1495 1495 1495 1496 1496 1497 1498 1500 1501 1502 1503 1503 1503 1503 1504 1505 1506 1507 1507 1508 1508 1509 1510 1511 1512